Regional Weather Roundup
Issued by NWS

Home | Current Version | Previous Version | Graphics & Text | Print | Product List | Glossary On
Versions: 1 2 3 4 5 6 7 8 9 10 11 12 13 14 15 16 17 18 19 20 21 22 23 24 25 26 27 28 29 30 31 32 33 34 35 36 37 38 39 40 41 42 43 44 45 46 47 48 49 50
000
ASUS43 KMPX 152110
RWRMN
WEATHER ROUNDUP FOR MINNESOTA
NATIONAL WEATHER SERVICE TWIN CITIES/CHANHASSEN MN
300 PM CST FRI DEC 15 2017


NOTE: "FAIR" INDICATES FEW OR NO CLOUDS BELOW 12,000 FEET WITH NO
SIGNIFICANT WEATHER AND/OR OBSTRUCTIONS TO VISIBILITY. N/A MEANS
CURRENT SKY AND/OR WEATHER CONDITIONS ARE NOT AVAILABLE.

MNZ060>063-068>070-152200-
   Twin Cities Metro

CITY           SKY/WX    TMP DP  RH WIND       PRES   REMARKS
TWIN CITIES    CLOUDY    28  21  75 NE3       29.79F
ST PAUL        CLOUDY    26  19  74 CALM      29.82F
CRYSTAL        CLOUDY    25  15  66 CALM      29.78F
BLAINE         CLOUDY    27  18  69 VRB3      29.79F
LAKEVILLE      CLOUDY    27  25  93 CALM      29.78F
EDEN PRAIRIE   CLOUDY    28  22  78 SW5       29.78F WCI  23
SOUTH ST PAUL  CLOUDY    27  19  72 CALM      29.80S
LAKE ELMO      CLOUDY    27  18  69 CALM      29.81S
$$
MNZ001>005-007-008-013>017-022>024-027-028-152200-
   Northwest Minnesota

CITY           SKY/WX    TMP DP  RH WIND       PRES   REMARKS
BEMIDJI        FLURRIES  14   9  79 SE6       29.71S WCI   5
HALLOCK        CLOUDY    18  16  93 SE14      29.69F WCI   4
ROSEAU         LGT SNOW  14   9  79 SE6       29.72F WCI   5
WARROAD        FLURRIES  10   7  85 E6        29.72F WCI   1
CROOKSTON      MIX PCPN  19  18  93 S12       29.70F WCI   7
FOSSTON        CLOUDY    18  12  79 SE5       29.70S WCI  11
DETROIT LAKES  CLOUDY    23  19  86 SE6       29.70S WCI  16
MOORHEAD       CLOUDY    25  19  80 CALM      29.70F
PARK RAPIDS    CLOUDY    18  11  74 SE6       29.69F WCI  10
MAHNOMEN       CLOUDY    20  15  81 S6        29.69F WCI  12
$$
MNZ006-009>011-018-025>026-152200-
   North Central Minnesota

CITY           SKY/WX    TMP DP  RH WIND       PRES   REMARKS
BAUDETTE       FLURRIES  10   4  76 SE6       29.73R WCI   0
FLAG ISLAND    CLOUDY     7   3  85 CALM      29.74S
INTL FALLS     MOCLDY     6   0  76 CALM      29.75S
WASKISH        CLOUDY    12   9  85 SE5       29.73S WCI   4
BIG FORK       CLOUDY    12   5  73 CALM      29.72F
LONGVILLE      LGT SNOW  16   9  73 CALM      29.73F
GRAND RAPIDS   CLOUDY    15   5  64 CALM      29.75F
CRANE LAKE     MOCLDY     9   1  72 CALM      29.78S
ORR            MOCLDY     9   1  72 CALM      29.71F
COOK           MOCLDY    10   1  67 CALM      29.74F
WALKER         FLURRIES  14   8  76 S3        29.71F
$$
MNZ012-019>021-037-152200-
   Northeast Minnesota

CITY           SKY/WX    TMP DP  RH WIND       PRES   REMARKS
DULUTH         MOCLDY    12   3  67 W3        29.73F
ELY            PTCLDY     9   1  72 CALM      29.74S
HIBBING        PTCLDY    11   1  64 CALM      29.73F
EVELETH        CLEAR     11   1  62 CALM      29.75F
DULUTH HARBOR  MOCLDY    18   7  62 CALM      29.81F
TWO HARBORS    CLOUDY    19   7  58 W3        29.75S
SILVER BAY     MOCLDY    16   3  57 CALM      29.75R
GRAND MARAIS     N/A     15   1  53 NW6       29.81R WCI   6
G MARAIS ARPRT CLEAR      5  -6  61 NW5       29.69S WCI  -4
$$
MNZ029>031-032-039>041-046>048-054>057-064-152200-
   West Central Minnesota

CITY           SKY/WX    TMP DP  RH WIND       PRES   REMARKS
FERGUS FALLS   CLOUDY    27  21  80 SE9       29.73F WCI  17
WHEATON        CLOUDY    30  27  86 SE8       29.72F WCI  23
MORRIS         CLOUDY    28  27  93 SE8       29.71F WCI  20
ALEXANDRIA     CLOUDY    26  21  81 S8        29.72F WCI  18
ELBOW LAKE     CLOUDY    27  25  92 SE10      29.71F WCI  17
WADENA         CLOUDY    21  16  79 S6        29.71F WCI  14
GLENWOOD       CLOUDY    27  23  86 SE6       29.73F WCI  20
APPLETON         N/A     34  28  80 SE5       29.72F WCI  30
BENSON         CLOUDY    32  28  86 S5        29.74F WCI  27
ORTONVILLE     CLOUDY    34  30  86 SE7       29.70F WCI  28
MADISON        CLOUDY    39  30  70 SW6       29.71F
WILLMAR        CLOUDY    32  28  86 SE7       29.75F WCI  26
$$
MNZ033>034-036-042>043-049>051-058-059-152200-
   Central Minnesota

CITY           SKY/WX    TMP DP  RH WIND       PRES   REMARKS
ST CLOUD       CLOUDY    24  18  77 SE7       29.76F WCI  16
SAUK CENTRE    CLOUDY    24  18  77 SE5       29.74F WCI  18
PAYNESVILLE    CLOUDY    28  24  86 S5        29.75F WCI  22
AITKIN         CLOUDY    18   9  68 CALM      29.73F
PINE RIVER     CLOUDY    18  10  73 S3        29.76F
BRAINERD       CLOUDY    21  11  65 S5        29.74F WCI  15
STAPLES        CLOUDY    19  12  73 S5        29.72F WCI  13
LITTLE FALLS   CLOUDY    23  12  63 SE5       29.75F WCI  17
LITCHFIELD     CLOUDY    28  27  93 SE3       29.77S
BUFFALO        CLOUDY    25  18  75 CALM      29.79F
MAPLE LAKE     CLOUDY    27  21  80 SE3       29.78S
HUTCHINSON     CLOUDY    30  27  90 SE5       29.78S WCI  25
$$
MNZ037-044-045-052-053-152200-
   East Central Minnesota

CITY           SKY/WX    TMP DP  RH WIND       PRES   REMARKS
PRINCETON      CLOUDY    25  16  68 CALM      29.77F
MORA           CLOUDY    21  10  63 SW6       29.80R WCI  14
CAMBRIDGE      CLOUDY    23  12  63 CALM      29.79S
RUSH CITY      CLOUDY    20  11  67 S5        29.79F WCI  13
MOOSE LAKE     CLOUDY    21  10  63 CALM      29.74S
HINCKLEY       FAIR      21  12  68 S3        29.78S
CLOQUET        CLOUDY    16   5  62 CALM      29.74F
MCGREGOR       CLOUDY    21  10  63 SW5       29.75S WCI  15
$$
MNZ071>073-080-081-089-090-097-098-152200-
   Southwest Minnesota

CITY           SKY/WX    TMP DP  RH WIND       PRES   REMARKS
MONTEVIDEO     PTSUNNY   39  32  75 W6        29.72F
GRANITE FALLS  CLOUDY    40  31  69 SW6       29.74F
CANBY          PTSUNNY   40  30  66 SW7       29.72F
MARSHALL       CLOUDY    39  27  62 SW12      29.73F
REDWOOD FALLS  CLOUDY    38  29  70 SW6       29.74F
OLIVIA         SUNNY     34  32  93 SE6       29.73F WCI  29
PIPESTONE      MOSUNNY   37  27  65 W12       29.71F
WINDOM           N/A     39  23  52 SW8       29.74F
WORTHINGTON    CLOUDY    39  25  57 SW13      29.74F
JACKSON        PTSUNNY   37  27  65 W10       29.75F
TRACY          CLOUDY    39  30  70 SW9       29.72F
SLAYTON        MOSUNNY   37  28  68 SW12      29.73F
$$
MNZ065>067-074>077-082>085-091>093-152200-
   South Central Minnesota

CITY           SKY/WX    TMP DP  RH WIND       PRES   REMARKS
MANKATO        CLOUDY    34  28  80 SE5       29.77F WCI  30
NEW ULM        CLOUDY    37  27  65 SW3       29.75F
ST JAMES       MOSUNNY   39  27  60 SW10      29.77S
FAIRMONT       PTSUNNY   41  27  57 W13       29.77F
GLENCOE        CLOUDY    30  26  86 SE5       29.77F WCI  25
FARIBAULT      CLOUDY    30  27  86 CALM      29.79S
OWATONNA       PTSUNNY   34  28  80 CALM      29.78F
WASECA         CLOUDY    34  30  86 SW6       29.79S WCI  29
ALBERT LEA     CLOUDY    36  27  69 W8        29.78F
$$
MNZ078>079-086>088-094>096-152200-
   Southeast Minnesota

CITY           SKY/WX    TMP DP  RH WIND       PRES   REMARKS
ROCHESTER      CLOUDY    31  28  89 W3        29.78F
RED WING       CLOUDY    30  19  64 W3        29.79F
STANTON        CLOUDY    29  25  84 CALM      29.78F
DODGE CENTER   CLOUDY    30  28  93 W5        29.78S WCI  25
WINONA           N/A     32  27  80 SW5       29.82S WCI  27
AUSTIN         CLOUDY    34  28  80 W7        29.78F WCI  28
PRESTON        CLOUDY    31  27  86 W7        29.80S WCI  24
$$
ABBREVIATIONS USED IN REMARKS
   TC - TEMPERATURES IN CELSIUS
  WCI - WIND CHILL INDEX
   HX - HEAT INDEX
  VSB - VISIBILITY
$$




USA.gov is the U.S. government's official web portal to all federal, state and local government web resources and services.